GW6248 Weather Reports


time (UTC)temp
F
wind
direction
speed
knots
gust
knots
rain 1hr
in
rain 24hr
in
rain mn
in
humidity
%
barometer
mb
20260503022003 51 39 0.0 0.9 0.00 0.12 0.02 99 1009.4
20260503021503 51 43 0.0 0.9 0.00 0.12 0.02 99 1009.3
20260503021003 51 42 0.0 1.7 0.00 0.12 0.02 99 1009.3
20260503020503 51 41 0.0 1.7 0.00 0.12 0.02 99 1009.3
20260503020003 51 38 0.0 0.9 0.00 0.12 0.02 99 1009.2
20260503015503 51 30 0.0 0.9 0.00 0.12 0.02 99 1009.5
20260503015003 51 28 0.0 0.9 0.00 0.12 0.02 99 1009.7
20260503014503 51 27 0.0 0.9 0.00 0.12 0.02 99 1009.6
20260503014003 51 28 0.0 0.9 0.00 0.12 0.02 99 1009.8
20260503013503 51 40 0.0 0.9 0.00 0.12 0.02 99 1009.7
20260503013003 51 38 0.0 0.9 0.00 0.12 0.02 99 1009.7
20260503012503 51 31 0.0 0.9 0.00 0.12 0.02 99 1010.0
20260503012003 51 32 0.0 0.9 0.00 0.12 0.02 99 1010.0
20260503011503 51 35 0.0 0.9 0.00 0.12 0.02 99 1010.0
20260503011217 51 41 0.0 0.9 0.00 0.12 0.02 99 1010.1
20260503010503 51 28 0.0 0.9 0.00 0.12 0.02 99 1010.2
20260503010003 51 23 0.0 0.9 0.00 0.12 0.02 99 1010.1
20260503005503 51 26 0.0 0.9 0.00 0.12 0.02 99 1010.2
20260503005003 51 34 0.0 0.9 0.01 0.12 0.02 99 1010.2
20260503004503 51 35 0.0 0.9 0.01 0.12 0.02 99 1010.2
20260503004003 51 33 0.0 0.9 0.01 0.12 0.02 99 1010.3
20260503003503 51 32 0.0 0.9 0.00 0.11 0.01 99 1010.3
20260503003217 51 31 0.0 0.9 0.01 0.11 0.01 99 1010.2
20260503002716 51 36 0.0 0.9 0.01 0.11 0.01 99 1010.3
20260503002217 51 23 0.0 1.7 0.01 0.11 0.01 99 1010.3
20260503001503 51 36 0.0 1.7 0.01 0.11 0.01 99 1010.2
20260503001003 51 31 0.0 0.9 0.01 0.11 0.01 99 1010.4
20260503000503 51 25 0.0 0.9 0.01 0.11 0.01 99 1010.4
20260503000218 51 24 0.0 0.9 0.01 0.11 0.01 98 1010.4
20260502235503 51 31 0.0 0.9 0.02 0.11 0.01 98 1010.5
20260502235003 52 30 0.0 0.9 0.01 0.11 0.01 98 1010.6
20260502234503 52 28 0.0 0.9 0.01 0.11 0.01 98 1010.6
20260502234217 52 27 0.0 0.9 0.01 0.11 0.01 98 1010.6
20260502233503 52 27 0.0 0.9 0.02 0.11 0.01 98 1010.7
20260502233003 52 17 0.0 0.9 0.01 0.11 0.00 98 1010.6
20260502232718 52 17 0.0 0.9 0.01 0.11 0.00 98 1010.6
20260502232003 52 31 0.0 0.9 0.02 0.11 0.00 98 1010.5
20260502231503 52 0 0.0 0.0 0.02 0.11 0.00 98 1010.6
20260502231003 52 0 0.0 0.0 0.02 0.10 0.00 98 1010.4
20260502230503 52 0 0.0 0.0 0.02 0.10 0.00 98 1010.5
20260502230003 52 43 0.0 0.9 0.02 0.10 0.00 98 1010.6
20260502225503 52 42 0.0 0.9 0.02 0.10 0.10 98 1010.6
20260502225217 52 40 0.0 0.9 0.02 0.10 0.10 98 1010.6
20260502224503 52 39 0.0 0.9 0.02 0.10 0.10 98 1010.7
20260502224217 52 47 0.0 0.9 0.02 0.10 0.10 98 1010.6
20260502223503 52 47 0.0 0.9 0.02 0.09 0.09 98 1010.8
20260502223217 52 0 0.0 0.0 0.02 0.09 0.09 98 1010.6
20260502222503 52 29 0.0 0.9 0.02 0.09 0.09 98 1010.8
20260502222003 52 25 0.0 0.9 0.02 0.09 0.09 98 1010.8
20260502221503 52 23 0.0 0.9 0.02 0.09 0.09 98 1010.8
20260502221216 52 12 0.0 0.9 0.02 0.09 0.09 98 1010.8
20260502220503 52 358 0.0 0.9 0.02 0.09 0.09 98 1010.6
20260502220003 52 0 0.0 0.0 0.02 0.08 0.08 98 1010.8
20260502215503 52 0 0.0 0.0 0.02 0.08 0.08 98 1010.8
20260502215003 52 0 0.0 0.0 0.02 0.08 0.08 98 1010.9
20260502214503 52 0 0.0 0.0 0.02 0.08 0.08 98 1011.0
20260502214003 52 348 0.0 0.9 0.02 0.08 0.08 98 1011.0
20260502213503 52 342 0.0 0.9 0.02 0.08 0.08 97 1011.1
20260502213218 52 342 0.0 0.9 0.02 0.07 0.07 97 1011.0
20260502212503 52 0 0.0 0.0 0.02 0.07 0.07 97 1011.1
20260502212004 52 0 0.0 0.0 0.02 0.07 0.07 97 1010.9
20260502211503 52 37 0.0 0.9 0.02 0.07 0.07 97 1011.0
20260502211003 52 37 0.0 0.9 0.02 0.07 0.07 97 1011.1
20260502210503 52 0 0.0 0.0 0.02 0.06 0.06 97 1011.0
20260502210218 52 32 0.0 0.9 0.02 0.06 0.06 97 1011.2
20260502205503 52 32 0.0 0.9 0.02 0.06 0.06 97 1010.9
20260502205003 52 353 0.0 0.9 0.02 0.06 0.06 97 1011.1
20260502204717 52 353 0.0 0.9 0.02 0.06 0.06 97 1011.2
20260502204003 52 13 0.0 0.9 0.02 0.06 0.06 97 1011.2
20260502203503 52 353 0.0 0.9 0.02 0.06 0.06 97 1011.0
20260502203218 52 349 0.0 0.9 0.02 0.05 0.05 97 1011.2
20260502202503 52 20 0.0 0.9 0.02 0.05 0.05 97 1011.1
20260502202218 52 27 0.0 0.9 0.02 0.05 0.05 96 1011.1
20260502201503 52 341 0.0 0.9 0.02 0.05 0.05 96 1011.3
20260502201003 52 335 0.0 0.9 0.02 0.05 0.05 96 1011.2
20260502200717 52 335 0.0 0.9 0.02 0.05 0.05 96 1011.3
20260502200004 52 334 0.0 1.7 0.02 0.04 0.04 96 1011.5
20260502195503 52 329 0.0 1.7 0.02 0.04 0.04 96 1011.6
20260502195003 52 330 0.9 1.7 0.02 0.04 0.04 96 1011.3
20260502194503 52 334 0.9 1.7 0.02 0.04 0.04 96 1011.3
20260502194003 52 332 0.9 1.7 0.02 0.04 0.04 96 1011.3
20260502193503 52 334 0.0 1.7 0.02 0.04 0.04 95 1011.2
20260502193003 52 337 0.9 1.7 0.03 0.04 0.04 95 1011.5
20260502192503 52 337 0.9 1.7 0.03 0.03 0.03 95 1011.2
20260502192217 52 340 0.0 1.7 0.03 0.03 0.03 95 1011.4
20260502191503 52 332 0.0 1.7 0.02 0.03 0.03 95 1011.5
20260502191003 53 329 0.0 1.7 0.02 0.02 0.02 95 1011.3
20260502190503 53 2 0.0 0.9 0.02 0.02 0.02 95 1011.6
20260502190003 53 16 0.0 0.9 0.02 0.02 0.02 94 1011.7
20260502185503 53 10 0.0 0.9 0.02 0.02 0.02 94 1011.4
20260502185003 53 360 0.0 0.9 0.02 0.02 0.02 94 1011.7
20260502184503 53 348 0.0 0.9 0.02 0.02 0.02 93 1011.7
20260502184217 53 348 0.0 0.9 0.02 0.02 0.02 93 1011.4
20260502183503 53 348 0.0 0.9 0.02 0.02 0.02 93 1011.6
20260502183003 53 356 0.0 1.7 0.00 0.00 0.00 92 1011.6
20260502182503 53 3 0.0 1.7 0.00 0.00 0.00 92 1011.5
20260502182003 54 9 0.0 1.7 0.00 0.00 0.00 91 1011.4
20260502181503 54 11 0.0 1.7 0.00 0.00 0.00 91 1011.7
20260502181003 54 15 0.0 1.7 0.00 0.00 0.00 90 1011.6
20260502180503 54 20 0.0 1.7 0.00 0.00 0.00 88 1011.7
20260502170503 58 351 0.0 1.7 0.00 0.00 0.00 75 1011.6
20260502170216 58 352 0.0 1.7 0.00 0.00 0.00 74 1011.7
20260502164218 58 352 0.9 1.7 0.00 0.00 0.00 73 1011.7
20260502163503 58 352 0.9 1.7 0.00 0.00 0.00 72 1012.0
20260502163003 58 351 0.9 1.7 0.00 0.00 0.00 73 1011.8
20260502162503 59 343 0.9 1.7 0.00 0.00 0.00 70 1011.8
20260502162003 59 331 0.9 1.7 0.00 0.00 0.00 69 1011.9
20260502161503 59 320 0.0 1.7 0.00 0.00 0.00 70 1011.9
20260502161003 59 257 0.0 1.7 0.00 0.00 0.00 70 1011.9
20260502160503 59 167 0.9 2.6 0.00 0.00 0.00 68 1012.0
20260502152003 60 178 1.7 4.3 0.00 0.00 0.00 65 1012.5
20260502151503 60 185 1.7 4.3 0.00 0.00 0.00 63 1012.5
20260502151003 60 151 1.7 4.3 0.00 0.00 0.00 64 1012.7
20260502150503 61 145 1.7 3.5 0.00 0.00 0.00 62 1012.7
20260502130503 63 150 3.5 7.0 0.00 0.00 0.00 59 1013.7
20260502123503 63 108 2.6 5.2 0.00 0.00 0.00 60 1014.2
20260502123003 63 118 2.6 6.1 0.00 0.01 0.00 59 1014.0
20260502122503 62 138 3.5 6.1 0.00 0.02 0.00 59 1014.1
20260502122003 62 138 3.5 7.0 0.00 0.03 0.00 58 1014.5
20260502121503 62 143 2.6 7.0 0.00 0.03 0.00 60 1014.3
20260502121003 62 155 2.6 7.0 0.00 0.03 0.00 63 1014.5
20260502120503 61 167 3.5 7.8 0.00 0.04 0.00 63 1014.5
20260502115503 62 122 2.6 6.1 0.00 0.04 0.00 63 1014.8
20260502115216 62 135 2.6 5.2 0.00 0.04 0.00 62 1015.0
20260502114503 61 143 2.6 6.1 0.00 0.04 0.00 65 1014.9
20260502114003 60 137 2.6 6.1 0.00 0.04 0.00 66 1015.1
20260502113503 60 133 2.6 7.8 0.00 0.04 0.00 67 1015.2
20260502113003 60 114 2.6 7.8 0.00 0.04 0.00 68 1015.2
20260502112503 59 95 1.7 5.2 0.00 0.04 0.00 70 1015.4
20260502112003 58 93 2.6 5.2 0.00 0.04 0.00 71 1015.3
20260502111503 59 128 1.7 4.3 0.00 0.04 0.00 72 1015.4
20260502111003 58 157 1.7 4.3 0.00 0.04 0.00 71 1015.4
20260502110503 57 121 1.7 3.5 0.00 0.04 0.00 71 1015.5
20260502110003 58 139 1.7 3.5 0.00 0.05 0.00 73 1015.4
20260502105717 58 162 1.7 3.5 0.00 0.05 0.00 72 1015.6
20260502105219 59 174 1.7 3.5 0.00 0.06 0.00 69 1015.6
20260502104503 58 193 1.7 4.3 0.00 0.06 0.00 70 1015.3
20260502104003 57 189 1.7 4.3 0.00 0.07 0.00 72 1015.4
20260502103503 56 179 1.7 3.5 0.00 0.07 0.00 71 1015.4
20260502103003 57 172 0.9 3.5 0.00 0.07 0.00 72 1015.5
20260502102503 56 170 0.9 3.5 0.00 0.07 0.00 73 1015.6
20260502102218 56 168 0.9 3.5 0.00 0.08 0.00 75 1015.3
20260502101503 57 185 0.9 3.5 0.00 0.10 0.00 75 1015.3
20260502101003 56 182 0.9 3.5 0.00 0.13 0.00 76 1015.6
20260502100503 56 205 0.9 3.5 0.00 0.15 0.00 76 1015.4
20260502091503 54 28 0.9 1.7 0.00 0.22 0.00 95 1016.2
20260502091003 53 22 0.9 1.7 0.00 0.22 0.00 95 1016.2
20260502090503 53 19 0.9 1.7 0.00 0.22 0.00 96 1016.4
20260502071503 51 30 0.0 0.9 0.00 0.22 0.00 99 1016.4
20260502071003 51 39 0.0 0.9 0.00 0.22 0.00 99 1016.4
20260502070503 51 40 0.0 1.7 0.00 0.22 0.00 99 1016.7
20260502070003 51 35 0.0 1.7 0.00 0.22 0.00 99 1016.4
20260502065718 51 34 0.0 0.9 0.00 0.22 0.00 99 1016.6
20260502065217 51 36 0.0 0.9 0.00 0.22 0.00 99 1016.3
20260502064503 51 45 0.0 0.9 0.00 0.22 0.00 99 1016.3
20260502064003 51 40 0.0 1.7 0.00 0.22 0.00 99 1016.6
20260502063503 51 41 0.0 1.7 0.00 0.22 0.00 99 1016.5
20260502063216 51 43 0.0 0.9 0.00 0.22 0.00 99 1016.5
20260502062503 51 33 0.0 0.9 0.00 0.22 0.00 99 1016.6
20260502062217 51 32 0.0 0.9 0.00 0.22 0.00 99 1016.3
20260502061503 51 11 0.0 0.9 0.00 0.22 0.00 99 1016.7
20260502061003 51 7 0.0 0.9 0.00 0.22 0.00 99 1016.5
20260502060503 51 37 0.0 1.7 0.00 0.22 0.00 99 1016.5
20260502060004 51 38 0.0 1.7 0.00 0.22 0.00 99 1016.4
20260502055503 51 38 0.0 1.7 0.00 0.22 0.00 99 1016.3
20260502055003 51 22 0.0 0.9 0.00 0.22 0.00 99 1016.3
20260502054503 51 15 0.0 0.9 0.00 0.22 0.00 99 1016.4
20260502054003 51 24 0.0 0.9 0.00 0.22 0.00 99 1016.2
20260502053503 50 29 0.0 0.9 0.00 0.22 0.00 99 1016.3
20260502053003 50 11 0.0 0.9 0.00 0.22 0.00 99 1016.2
20260502052503 50 8 0.0 0.9 0.00 0.22 0.00 99 1016.5
20260502052003 50 7 0.0 0.9 0.00 0.22 0.00 99 1016.3
20260502051503 50 8 0.0 0.9 0.00 0.22 0.00 99 1016.2
20260502051218 50 12 0.0 0.9 0.00 0.22 0.00 99 1016.1
20260502050503 50 339 0.0 0.9 0.00 0.22 0.00 99 1016.4
20260502050003 50 333 0.0 0.9 0.00 0.23 0.00 99 1016.4
20260502045717 50 3 0.0 0.9 0.00 0.24 0.00 99 1016.6
20260502045003 50 358 0.0 0.9 0.00 0.24 0.00 99 1016.5
20260502044504 50 4 0.0 1.7 0.00 0.24 0.00 99 1016.4
20260502044003 50 22 0.0 1.7 0.00 0.24 0.00 99 1016.7
20260502043503 50 11 0.0 0.9 0.00 0.24 0.00 99 1016.6
20260502043003 50 24 0.0 0.9 0.00 0.24 0.00 99 1016.5
20260502042717 50 30 0.0 0.9 0.00 0.24 0.00 99 1016.5
20260502042218 50 30 0.0 0.9 0.00 0.24 0.00 99 1016.5
20260502041503 50 32 0.0 0.9 0.00 0.24 0.00 99 1016.7
20260502041003 50 36 0.0 0.9 0.00 0.24 0.00 99 1016.7
20260502040503 50 32 0.0 0.9 0.00 0.24 0.00 99 1016.7
20260502040004 50 11 0.0 0.9 0.00 0.24 0.00 99 1016.6
20260502035503 50 8 0.0 0.9 0.00 0.24 0.00 99 1016.8
20260502035003 50 41 0.0 1.7 0.00 0.24 0.00 99 1016.6
20260502034503 50 48 0.0 1.7 0.00 0.24 0.00 99 1016.7
20260502034003 50 31 0.0 0.9 0.00 0.24 0.00 99 1016.7
20260502033503 50 30 0.0 0.9 0.00 0.24 0.00 99 1016.6
20260502033217 50 40 0.0 1.7 0.00 0.24 0.00 99 1016.9
20260502032503 50 22 0.0 1.7 0.00 0.24 0.00 99 1016.8
20260502032003 50 26 0.0 1.7 0.00 0.24 0.00 99 1016.9
20260502031718 50 32 0.0 0.9 0.00 0.24 0.00 99 1016.9
20260502031217 50 39 0.0 1.7 0.00 0.24 0.00 99 1017.1
20260502030503 50 38 0.0 1.7 0.00 0.24 0.00 99 1017.1
20260502030003 50 37 0.9 1.7 0.00 0.24 0.00 99 1016.9
20260502025503 50 33 0.0 1.7 0.00 0.24 0.00 99 1017.0
20260502025003 50 15 0.0 1.7 0.00 0.24 0.00 99 1017.2
20260502024503 49 16 0.0 1.7 0.00 0.24 0.00 99 1017.4
20260502024003 49 15 0.0 0.9 0.00 0.24 0.00 99 1017.1
20260502023718 49 18 0.0 0.9 0.00 0.24 0.00 99 1017.3
20260502023003 49 28 0.0 1.7 0.00 0.24 0.00 99 1017.4
20260502022504 49 26 0.0 1.7 0.00 0.24 0.00 99 1017.5